Regional Weather Roundup
Issued by NWS

Home | Current Version | Previous Version | Text Only | Print | Product List | Glossary On
Versions: 1 2 3 4 5 6 7 8 9 10 11 12 13 14 15 16 17 18 19 20 21 22 23 24 25 26 27 28 29 30 31 32 33 34 35 36 37 38 39 40 41 42 43 44 45 46 47 48 49 50
653
ASUS42 KKEY 151410
RWRKEY

FLORIDA REGIONAL WEATHER ROUNDUP FOR THE FLORIDA KEYS
NATIONAL WEATHER SERVICE KEY WEST FLORIDA
900 AM EST FRI DEC 15 2017

...SOUTH FLORIDA AND THE KEYS...

CITY           SKY/WX    TMP DP  RH WIND       PRES   REMARKS
FORT MYERS     MOSUNNY   65  56  72 S7        30.10R
SW REGIONAL AP MOSUNNY   63  58  83 S5        30.11R
NAPLES         MOSUNNY   64  58  80 SE5       30.11R
MIAMI          CLOUDY    67  58  72 CALM      30.12R
WEST KENDALL   SUNNY     65  57  75 CALM      30.12R
HOMESTEAD      SUNNY     61  61  98 CALM      30.11R
MARATHON       SUNNY     65  58  78 NE5       30.12R
KEY WEST INTL  SUNNY     69  60  73 NE5       30.12R

...INTERNATIONAL WEATHER...

CITY           SKY/WX    TMP DP  RH WIND       PRES   REMARKS
NASSAU BAHAMAS PTSUNNY   72  61  68 CALM      30.14R
CANCUN MEXICO  CLOUDY    73  68  83 NE3       30.05R
COZUMEL MEXICO MOSUNNY   75  70  83 E5        30.01R

ADJACENT COASTAL WATERS...

STATION/POSITION TIME  SKY/WX   TEMP    WIND        PRES    WAVE
                                AIR SEA DIR/SP/G            HT/PER
                 (UTC)          (F)     (DEG/KT/KT) (MB)    (FT/S)
PULASKI SHOAL LI 1400            72     120/ 10/ 11 1019.6R
SAND KEY         1350            68                 1020.2R
LONG KEY         NOT AVBL
MOLASSES REEF    1400            68 77  360/  5/  6 1020.2R
FOWEY ROCKS      1400            69 76  310/  5/  6 1020.4R
Buoy 42097       1330               76                N/A     2/ 4

$$




USA.gov is the U.S. government's official web portal to all federal, state and local government web resources and services.